Regional Weather Roundup
Issued by NWS Northern Indiana

Home | Current Version | Previous Version | Graphics & Text | Print | Product List | Glossary On
Versions: 1 2 3 4 5 6 7 8 9 10 11 12 13 14 15 16 17 18 19 20 21 22 23 24 25 26 27 28 29 30 31 32 33 34 35 36 37 38 39 40 41 42 43 44 45 46 47 48 49 50
000
ASUS43 KIWX 211400
RWRIWX

KIWX WEATHER ROUNDUP
NATIONAL WEATHER SERVICE NORTHERN INDIANA
1000 AM EDT TUE OCT 21 2014

NOTE: "FAIR" INDICATES FEW OR NO CLOUDS BELOW 12,000 FEET WITH NO
SIGNIFICANT WEATHER AND/OR OBSTRUCTIONS TO VISIBILITY.

* THESE STATIONS ARE NOT UNDER NWS QUALITY CONTROL. THEY ALSO MAY NOT
  REPORT WEATHER SUCH AS PRECIPITATION OR FOG.

INZ001>027-211500-
NORTHERN INDIANA

CITY           SKY/WX    TMP DP  RH WIND       PRES   REMARKS
GARY*          PTSUNNY   54  41  62 N12G29    30.12
SOUTH BEND     CLOUDY    49  45  86 N10       30.09R
ELKHART*       CLOUDY    48  41  76 N9        30.08R
GOSHEN         CLOUDY    48  42  80 N10       30.06R
ANGOLA*        CLOUDY    45  45 100 N7        30.04R
FORT WAYNE     PTSUNNY   48  42  80 NW12      30.05R
PERU/GRISSOM   PTSUNNY   49  47  92 N12G21    30.07R

$$
INZ028>050-211500-
CENTRAL INDIANA

CITY           SKY/WX    TMP DP  RH WIND       PRES   REMARKS
LAFAYETTE      LGT RAIN  48  46  93 N6        30.10R
KOKOMO*        CLOUDY    48  43  81 N9G17     30.08R
MUNCIE*        PTSUNNY   50  42  74 NW12      30.05R
INDIANAPOLIS   PTSUNNY   50  45  83 NW9       30.08R

$$
MIZ043>046-050>051-056>058-064>065-071>073-077>080-211500-
SOUTHWEST LOWER MICHIGAN

CITY           SKY/WX    TMP DP  RH WIND       PRES   REMARKS
BATTLE CREEK   CLOUDY    47  44  90 N8        30.06R FOG
BENTON HARBOR  LGT RAIN  47  46  97 NE7       30.08R FOG
COLDWATER*     LGT RAIN  47  46  95 N8        30.04R
HILLSDALE*     DRIZZLE   46  46 100 N9        30.02R
HOLLAND        CLOUDY    50  44  80 N6        30.10R
GRAND RAPIDS   CLOUDY    48  45  89 N8        30.08R
KALAMAZOO      CLOUDY    47  43  86 N12       30.07R
STURGIS*       LGT RAIN  46  45  93 N7        30.05R
THREE RIVERS*  CLOUDY    47  44  89 N5        30.07R

$$
OHZ001>008-015>018-024>025-211500-
NORTHWEST OHIO

CITY           SKY/WX    TMP DP  RH WIND       PRES   REMARKS
DEFIANCE       CLOUDY    48  44  86 NW12      30.03R
FINDLAY        CLOUDY    49  45  86 NW8       29.98R
TOLEDO EXPRESS CLOUDY    48  43  82 N8        30.00R
TOLEDO METCALF CLOUDY    49  44  83 NW10      30.00R
LIMA           CLOUDY    48  44  86 NW10      30.00R

$$
AND FOR LAKE MICHIGAN COASTAL AND OPEN LAKE BUOY OBSERVATIONS

STATION/POSITION TEMP    WIND        PRES    VSBY  WAVE
                 AIR SEA DIR/SP/G                  HT/PER
                 (F)     (DEG/KT/KT) (MB)    (MI)  (FT/S)
CALUMET HARBOR    51     330/ 12/ 17 1018.7R
MICHIGAN CITY     49     320/ 21/ 24   N/A
SAINT JOSEPH      51                 1018.6S
SOUTH LAKE BUOY   51 54  350/ 21/ 23 1018.7R         6/ 7
MICHIGAN CITY CG     54                N/A    3 1/2  5

$$
&&



USA.gov is the U.S. government's official web portal to all federal, state and local government web resources and services.